Time,TemperatureF,DewpointF,PressureIn,WindDirection,WindDirectionDegrees,WindSpeedMPH,WindSpeedGustMPH,Humidity,HourlyPrecipIn,Conditions,Clouds,dailyrainin,SoftwareType,DateUTC
2013-02-22 00:01:00,31.0,29.0,29.77,ESE,121,0.0,1.0,92,0.00,,,0.00,,2013-02-22 06:01:00,
2013-02-22 00:11:00,31.0,29.0,29.77,ESE,121,0.0,2.0,93,0.00,,,0.00,,2013-02-22 06:11:00,
2013-02-22 00:21:00,31.0,29.0,29.77,ESE,121,0.0,2.0,93,0.00,,,0.00,,2013-02-22 06:21:00,
2013-02-22 00:31:00,31.0,29.0,29.77,ESE,121,0.0,0.0,93,0.00,,,0.00,,2013-02-22 06:31:00,
2013-02-22 00:42:00,31.0,29.0,29.77,ESE,121,0.0,0.0,93,0.00,,,0.00,,2013-02-22 06:42:00,
2013-02-22 00:52:00,31.0,29.0,29.76,ESE,121,0.0,0.0,93,0.00,,,0.00,,2013-02-22 06:52:00,
2013-02-22 01:01:00,31.0,29.0,29.76,ESE,121,0.0,0.0,93,0.00,,,0.00,,2013-02-22 07:01:00,
2013-02-22 01:11:00,31.0,29.0,29.77,ESE,123,0.0,1.0,93,0.00,,,0.00,,2013-02-22 07:11:00,
2013-02-22 01:21:00,31.0,29.0,29.77,ESE,123,0.0,1.0,93,0.00,,,0.00,,2013-02-22 07:21:00,
2013-02-22 01:31:00,31.0,29.0,29.76,ESE,123,0.0,0.0,93,0.00,,,0.00,,2013-02-22 07:31:00,
2013-02-22 01:42:00,31.0,29.0,29.76,ESE,123,0.0,1.0,93,0.00,,,0.00,,2013-02-22 07:42:00,
2013-02-22 01:51:00,31.0,29.0,29.76,ESE,123,0.0,1.0,93,0.00,,,0.00,,2013-02-22 07:51:00,
2013-02-22 02:01:00,31.0,29.0,29.75,ESE,123,0.0,0.0,93,0.00,,,0.00,,2013-02-22 08:01:00,
2013-02-22 02:11:00,31.0,29.0,29.75,SE,143,1.0,2.0,93,0.00,,,0.00,,2013-02-22 08:11:00,
2013-02-22 02:21:00,31.0,29.0,29.75,SE,143,1.0,2.0,93,0.00,,,0.00,,2013-02-22 08:21:00,
2013-02-22 02:31:00,31.0,29.0,29.75,SE,146,0.0,1.0,93,0.00,,,0.00,,2013-02-22 08:31:00,
2013-02-22 02:42:00,31.0,29.0,29.75,SE,146,0.0,1.0,93,0.00,,,0.00,,2013-02-22 08:42:00,
2013-02-22 02:52:00,31.0,29.0,29.75,SE,135,0.0,2.0,93,0.00,,,0.00,,2013-02-22 08:52:00,
2013-02-22 03:03:00,31.0,29.0,29.75,SE,128,0.0,1.0,93,0.00,,,0.00,,2013-02-22 09:03:00,
2013-02-22 03:11:00,31.0,29.0,29.75,SE,127,0.0,2.0,93,0.00,,,0.00,,2013-02-22 09:11:00,
2013-02-22 03:21:00,31.0,29.0,29.75,SE,127,0.0,2.0,93,0.00,,,0.00,,2013-02-22 09:21:00,
2013-02-22 03:31:00,32.0,30.0,29.74,SE,127,0.0,1.0,93,0.00,,,0.00,,2013-02-22 09:31:00,
2013-02-22 03:41:00,31.0,29.0,29.74,SE,140,0.0,0.0,93,0.00,,,0.00,,2013-02-22 09:41:00,
2013-02-22 03:52:00,31.0,29.0,29.74,SE,140,0.0,0.0,93,0.00,,,0.00,,2013-02-22 09:52:00,
2013-02-22 04:01:00,32.0,30.0,29.74,SE,135,0.0,1.0,93,0.00,,,0.00,,2013-02-22 10:01:00,
2013-02-22 04:11:00,32.0,30.0,29.75,SE,141,0.0,2.0,93,0.00,,,0.00,,2013-02-22 10:11:00,
2013-02-22 04:21:00,32.0,30.0,29.75,SE,141,0.0,2.0,93,0.00,,,0.00,,2013-02-22 10:21:00,
2013-02-22 04:31:00,32.0,30.0,29.75,SE,132,1.0,3.0,94,0.00,,,0.00,,2013-02-22 10:31:00,
2013-02-22 04:42:00,32.0,30.0,29.75,SE,132,0.0,3.0,94,0.00,,,0.00,,2013-02-22 10:42:00,
2013-02-22 04:51:00,32.0,30.0,29.75,SE,132,0.0,3.0,94,0.00,,,0.00,,2013-02-22 10:51:00,
2013-02-22 05:01:00,32.0,30.0,29.75,SE,134,0.0,2.0,94,0.00,,,0.00,,2013-02-22 11:01:00,
2013-02-22 05:11:00,32.0,30.0,29.76,SE,135,0.0,2.0,94,0.00,,,0.00,,2013-02-22 11:11:00,
2013-02-22 05:21:00,32.0,30.0,29.76,SE,135,0.0,2.0,94,0.00,,,0.00,,2013-02-22 11:21:00,
2013-02-22 05:32:00,32.0,30.0,29.76,SSE,156,0.0,1.0,94,0.00,,,0.00,,2013-02-22 11:32:00,
2013-02-22 05:42:00,32.0,30.0,29.76,SSE,156,0.0,1.0,94,0.00,,,0.00,,2013-02-22 11:42:00,
2013-02-22 05:52:00,32.0,30.0,29.76,SSE,163,0.0,2.0,94,0.00,,,0.00,,2013-02-22 11:52:00,
2013-02-22 06:02:00,33.0,31.0,29.77,SSE,150,1.0,2.0,94,0.00,,,0.00,,2013-02-22 12:02:00,
2013-02-22 06:11:00,33.0,31.0,29.77,SSE,150,1.0,2.0,94,0.00,,,0.00,,2013-02-22 12:11:00,
2013-02-22 06:21:00,33.0,31.0,29.77,SSE,147,1.0,2.0,94,0.00,,,0.00,,2013-02-22 12:21:00,
2013-02-22 06:32:00,33.0,31.0,29.76,South,188,0.0,0.0,93,0.00,,,0.00,,2013-02-22 12:32:00,
2013-02-22 06:42:00,33.0,31.0,29.76,South,188,0.0,0.0,93,0.00,,,0.00,,2013-02-22 12:42:00,
2013-02-22 06:52:00,33.0,31.0,29.79,SE,125,0.0,2.0,93,0.00,,,0.00,,2013-02-22 12:52:00,
2013-02-22 07:01:00,33.0,31.0,29.79,SE,136,1.0,5.0,93,0.00,,,0.00,,2013-02-22 13:01:00,
2013-02-22 07:11:00,33.0,31.0,29.79,SE,136,1.0,5.0,93,0.00,,,0.00,,2013-02-22 13:11:00,
2013-02-22 07:22:00,33.0,31.0,29.80,SSE,147,2.0,3.0,93,0.00,,,0.00,,2013-02-22 13:22:00,
2013-02-22 07:31:00,33.0,31.0,29.80,SE,146,1.0,3.0,93,0.00,,,0.00,,2013-02-22 13:31:00,
2013-02-22 07:42:00,33.0,31.0,29.80,SE,146,1.0,3.0,93,0.00,,,0.00,,2013-02-22 13:42:00,
2013-02-22 07:52:00,33.0,31.0,29.81,SSE,155,0.0,5.0,93,0.00,,,0.00,,2013-02-22 13:52:00,
2013-02-22 08:01:00,33.0,31.0,29.82,SE,137,0.0,1.0,93,0.00,,,0.00,,2013-02-22 14:01:00,
2013-02-22 08:11:00,33.0,31.0,29.82,SE,137,0.0,3.0,93,0.00,,,0.00,,2013-02-22 14:11:00,
2013-02-22 08:21:00,33.0,31.0,29.82,SE,137,0.0,3.0,93,0.00,,,0.00,,2013-02-22 14:21:00,
2013-02-22 08:32:00,33.0,31.0,29.83,SE,133,0.0,1.0,93,0.00,,,0.00,,2013-02-22 14:32:00,
2013-02-22 08:42:00,34.0,32.0,29.83,SE,133,0.0,1.0,92,0.00,,,0.00,,2013-02-22 14:42:00,
2013-02-22 08:53:00,34.0,32.0,29.83,SE,133,0.0,1.0,92,0.00,,,0.00,,2013-02-22 14:53:00,
2013-02-22 09:01:00,34.0,32.0,29.84,South,169,1.0,3.0,92,0.00,,,0.00,,2013-02-22 15:01:00,
2013-02-22 09:11:00,34.0,32.0,29.84,SSE,153,0.0,0.0,92,0.00,,,0.00,,2013-02-22 15:11:00,
2013-02-22 09:21:00,34.0,32.0,29.84,SSE,153,0.0,0.0,92,0.00,,,0.00,,2013-02-22 15:21:00,
2013-02-22 09:32:00,34.0,32.0,29.85,SSW,201,1.0,3.0,91,0.00,,,0.00,,2013-02-22 15:32:00,
2013-02-22 09:41:00,34.0,32.0,29.85,SSW,201,1.0,3.0,91,0.00,,,0.00,,2013-02-22 15:41:00,
2013-02-22 09:52:00,34.0,31.0,29.85,SSE,147,0.0,7.0,90,0.00,,,0.00,,2013-02-22 15:52:00,
2013-02-22 10:01:00,34.0,31.0,29.86,SW,230,2.0,5.0,88,0.00,,,0.00,,2013-02-22 16:01:00,
2013-02-22 10:12:00,33.0,29.0,29.87,WSW,255,3.0,9.0,84,0.00,,,0.00,,2013-02-22 16:12:00,
2013-02-22 10:21:00,33.0,29.0,29.87,WSW,255,3.0,9.0,84,0.00,,,0.00,,2013-02-22 16:21:00,
2013-02-22 10:31:00,34.0,29.0,29.87,SW,215,2.0,9.0,81,0.00,,,0.00,,2013-02-22 16:31:00,
2013-02-22 10:42:00,34.0,29.0,29.87,SW,215,2.0,9.0,81,0.00,,,0.00,,2013-02-22 16:42:00,
2013-02-22 10:52:00,33.0,28.0,29.88,WSW,244,3.0,8.0,80,0.00,,,0.00,,2013-02-22 16:52:00,
2013-02-22 11:01:00,33.0,28.0,29.89,SW,231,3.0,7.0,80,0.00,,,0.00,,2013-02-22 17:01:00,
2013-02-22 11:11:00,33.0,27.0,29.89,WSW,239,2.0,6.0,79,0.00,,,0.00,,2013-02-22 17:11:00,
2013-02-22 11:21:00,33.0,27.0,29.89,WSW,239,2.0,6.0,79,0.00,,,0.00,,2013-02-22 17:21:00,
2013-02-22 11:31:00,33.0,27.0,29.90,WSW,239,3.0,7.0,78,0.00,,,0.00,,2013-02-22 17:31:00,
2013-02-22 11:42:00,33.0,27.0,29.90,SW,214,1.0,7.0,79,0.00,,,0.00,,2013-02-22 17:42:00,
2013-02-22 11:52:00,33.0,27.0,29.90,SW,214,1.0,7.0,79,0.00,,,0.00,,2013-02-22 17:52:00,
2013-02-22 12:01:00,32.0,27.0,29.91,South,182,3.0,12.0,80,0.01,,,0.01,,2013-02-22 18:01:00,
2013-02-22 12:12:00,32.0,27.0,29.91,SSW,196,1.0,8.0,80,0.02,,,0.02,,2013-02-22 18:12:00,
2013-02-22 12:22:00,32.0,27.0,29.91,SSW,196,1.0,8.0,80,0.02,,,0.02,,2013-02-22 18:22:00,
2013-02-22 12:32:00,32.0,27.0,29.91,WSW,254,2.0,6.0,80,0.03,,,0.03,,2013-02-22 18:32:00,
2013-02-22 12:42:00,32.0,27.0,29.91,WSW,254,2.0,6.0,80,0.03,,,0.03,,2013-02-22 18:42:00,
2013-02-22 12:52:00,32.0,27.0,29.91,SW,232,1.0,6.0,81,0.04,,,0.04,,2013-02-22 18:52:00,
2013-02-22 13:01:00,32.0,26.0,29.91,SW,225,1.0,8.0,79,0.04,,,0.05,,2013-02-22 19:01:00,
2013-02-22 13:11:00,32.0,25.0,29.91,WSW,243,2.0,7.0,75,0.04,,,0.06,,2013-02-22 19:11:00,
2013-02-22 13:21:00,32.0,25.0,29.91,WSW,243,2.0,7.0,75,0.04,,,0.06,,2013-02-22 19:21:00,
2013-02-22 13:31:00,32.0,25.0,29.92,WSW,237,0.0,5.0,74,0.04,,,0.07,,2013-02-22 19:31:00,
2013-02-22 13:41:00,33.0,25.0,29.92,South,181,0.0,3.0,73,0.03,,,0.07,,2013-02-22 19:41:00,
2013-02-22 13:52:00,33.0,25.0,29.92,South,181,0.0,3.0,73,0.03,,,0.07,,2013-02-22 19:52:00,
2013-02-22 14:01:00,32.0,25.0,29.92,WSW,244,1.0,8.0,74,0.03,,,0.08,,2013-02-22 20:01:00,
2013-02-22 14:11:00,32.0,25.0,29.92,WSW,244,1.0,8.0,74,0.03,,,0.08,,2013-02-22 20:11:00,
2013-02-22 14:21:00,32.0,25.0,29.92,WSW,256,1.0,6.0,74,0.02,,,0.08,,2013-02-22 20:21:00,
2013-02-22 14:31:00,32.0,24.0,29.93,SSW,210,1.0,5.0,73,0.02,,,0.09,,2013-02-22 20:31:00,
2013-02-22 14:41:00,32.0,24.0,29.93,SSW,210,1.0,5.0,73,0.02,,,0.09,,2013-02-22 20:41:00,
2013-02-22 14:52:00,32.0,24.0,29.93,West,266,1.0,5.0,73,0.03,,,0.10,,2013-02-22 20:52:00,
2013-02-22 15:01:00,31.0,24.0,29.93,WSW,248,1.0,3.0,74,0.02,,,0.10,,2013-02-22 21:01:00,
2013-02-22 15:11:00,31.0,23.0,29.93,SW,225,2.0,9.0,73,0.02,,,0.10,,2013-02-22 21:11:00,
2013-02-22 15:21:00,31.0,23.0,29.93,SW,225,2.0,9.0,73,0.02,,,0.10,,2013-02-22 21:21:00,
2013-02-22 15:32:00,31.0,23.0,29.93,WSW,239,1.0,3.0,72,0.01,,,0.10,,2013-02-22 21:32:00,
2013-02-22 15:42:00,33.0,23.0,29.94,WSW,252,1.0,9.0,67,0.01,,,0.11,,2013-02-22 21:42:00,
2013-02-22 15:52:00,33.0,23.0,29.94,WSW,252,1.0,9.0,67,0.01,,,0.11,,2013-02-22 21:52:00,
2013-02-22 16:01:00,33.0,23.0,29.94,WSW,252,1.0,9.0,67,0.01,,,0.11,,2013-02-22 22:01:00,
2013-02-22 16:11:00,33.0,23.0,29.94,WSW,252,1.0,9.0,67,0.01,,,0.11,,2013-02-22 22:11:00,
2013-02-22 16:21:00,32.0,22.0,29.95,WSW,245,2.0,5.0,65,0.02,,,0.12,,2013-02-22 22:21:00,
2013-02-22 16:31:00,32.0,21.0,29.95,WSW,246,2.0,6.0,64,0.03,,,0.13,,2013-02-22 22:31:00,
2013-02-22 16:42:00,32.0,20.0,29.95,West,263,2.0,6.0,62,0.02,,,0.13,,2013-02-22 22:42:00,
2013-02-22 16:52:00,32.0,20.0,29.95,West,263,2.0,6.0,62,0.02,,,0.13,,2013-02-22 22:52:00,
2013-02-22 17:01:00,32.0,20.0,29.94,West,260,2.0,5.0,61,0.01,,,0.13,,2013-02-22 23:01:00,
2013-02-22 17:11:00,32.0,20.0,29.94,West,260,2.0,5.0,61,0.01,,,0.13,,2013-02-22 23:11:00,
2013-02-22 17:21:00,32.0,20.0,29.94,West,261,1.0,3.0,62,0.01,,,0.13,,2013-02-22 23:21:00,
2013-02-22 17:31:00,31.0,20.0,29.94,SW,221,1.0,3.0,62,0.00,,,0.13,,2013-02-22 23:31:00,
2013-02-22 17:41:00,31.0,20.0,29.94,SW,221,1.0,3.0,62,0.00,,,0.13,,2013-02-22 23:41:00,
2013-02-22 17:52:00,31.0,20.0,29.95,WSW,238,1.0,3.0,63,0.01,,,0.14,,2013-02-22 23:52:00,
2013-02-22 18:01:00,30.0,19.0,29.95,West,263,0.0,2.0,63,0.01,,,0.14,,2013-02-23 00:01:00,
2013-02-22 18:11:00,30.0,20.0,29.96,West,269,1.0,5.0,65,0.01,,,0.14,,2013-02-23 00:11:00,
2013-02-22 18:21:00,30.0,20.0,29.96,West,269,1.0,5.0,65,0.01,,,0.14,,2013-02-23 00:21:00,
2013-02-22 18:32:00,30.0,19.0,29.96,West,259,0.0,2.0,64,0.01,,,0.14,,2013-02-23 00:32:00,
2013-02-22 18:41:00,30.0,19.0,29.96,West,259,0.0,2.0,64,0.01,,,0.14,,2013-02-23 00:41:00,
2013-02-22 18:52:00,29.0,19.0,29.97,West,261,0.0,1.0,65,0.00,,,0.14,,2013-02-23 00:52:00,
2013-02-22 19:01:00,29.0,19.0,29.98,West,261,0.0,1.0,65,0.00,,,0.14,,2013-02-23 01:01:00,
2013-02-22 19:11:00,29.0,19.0,29.98,West,261,0.0,1.0,65,0.00,,,0.14,,2013-02-23 01:11:00,
2013-02-22 19:21:00,29.0,19.0,29.98,West,261,0.0,1.0,65,0.00,,,0.14,,2013-02-23 01:21:00,
2013-02-22 19:31:00,28.0,18.0,29.98,West,261,0.0,2.0,66,0.00,,,0.14,,2013-02-23 01:31:00,
2013-02-22 19:41:00,28.0,18.0,29.98,West,261,0.0,2.0,66,0.00,,,0.14,,2013-02-23 01:41:00,
2013-02-22 19:52:00,28.0,18.0,29.98,West,261,0.0,1.0,67,0.00,,,0.14,,2013-02-23 01:52:00,
2013-02-22 20:01:00,27.0,18.0,29.98,West,261,0.0,0.0,68,0.00,,,0.14,,2013-02-23 02:01:00,
2013-02-22 20:11:00,26.0,17.0,29.98,West,261,0.0,0.0,69,0.00,,,0.14,,2013-02-23 02:11:00,
2013-02-22 20:21:00,26.0,17.0,29.98,West,261,0.0,0.0,69,0.00,,,0.14,,2013-02-23 02:21:00,
2013-02-22 20:31:00,26.0,18.0,29.99,West,261,0.0,0.0,71,0.00,,,0.14,,2013-02-23 02:31:00,
2013-02-22 20:41:00,26.0,18.0,29.99,West,261,0.0,0.0,71,0.00,,,0.14,,2013-02-23 02:41:00,
2013-02-22 20:52:00,26.0,18.0,30.00,West,261,0.0,0.0,72,0.00,,,0.14,,2013-02-23 02:52:00,
2013-02-22 21:01:00,26.0,18.0,30.00,West,269,0.0,2.0,72,0.00,,,0.14,,2013-02-23 03:01:00,
2013-02-22 21:11:00,25.0,17.0,30.01,West,271,0.0,0.0,72,0.00,,,0.14,,2013-02-23 03:11:00,
2013-02-22 21:21:00,25.0,17.0,30.01,West,271,0.0,0.0,72,0.00,,,0.14,,2013-02-23 03:21:00,
2013-02-22 21:31:00,25.0,17.0,30.01,West,271,0.0,0.0,72,0.00,,,0.14,,2013-02-23 03:31:00,
2013-02-22 21:41:00,25.0,17.0,30.01,West,271,0.0,0.0,72,0.00,,,0.14,,2013-02-23 03:41:00,
2013-02-22 21:51:00,24.0,16.0,30.01,West,271,0.0,0.0,72,0.00,,,0.14,,2013-02-23 03:51:00,
2013-02-22 22:01:00,24.0,17.0,30.02,West,271,0.0,0.0,74,0.00,,,0.14,,2013-02-23 04:01:00,
2013-02-22 22:11:00,24.0,17.0,30.02,West,271,0.0,1.0,75,0.00,,,0.14,,2013-02-23 04:11:00,
2013-02-22 22:21:00,24.0,17.0,30.02,West,271,0.0,1.0,75,0.00,,,0.14,,2013-02-23 04:21:00,
2013-02-22 22:31:00,24.0,17.0,30.01,West,270,0.0,0.0,75,0.00,,,0.14,,2013-02-23 04:31:00,
2013-02-22 22:41:00,24.0,17.0,30.01,West,270,0.0,0.0,75,0.00,,,0.14,,2013-02-23 04:41:00,
2013-02-22 22:51:00,24.0,17.0,30.01,West,270,0.0,1.0,75,0.00,,,0.14,,2013-02-23 04:51:00,
2013-02-22 23:02:00,23.0,16.0,30.01,West,270,0.0,0.0,75,0.00,,,0.14,,2013-02-23 05:02:00,
2013-02-22 23:12:00,23.0,16.0,30.01,West,270,0.0,0.0,75,0.00,,,0.14,,2013-02-23 05:12:00,
2013-02-22 23:22:00,22.0,16.0,30.02,West,270,0.0,0.0,77,0.00,,,0.14,,2013-02-23 05:22:00,
2013-02-22 23:32:00,22.0,16.0,30.02,West,270,0.0,0.0,78,0.00,,,0.14,,2013-02-23 05:32:00,
2013-02-22 23:41:00,22.0,16.0,30.02,West,270,0.0,0.0,78,0.00,,,0.14,,2013-02-23 05:41:00,
2013-02-22 23:52:00,22.0,16.0,30.02,West,270,0.0,0.0,78,0.00,,,0.14,,2013-02-23 05:52:00,